Tracking 31027 objects as of 19-Jul-2025
HD Live streaming from Space Station
objects crossing your sky now

MINOTAUR 4 R/B

Track MINOTAUR 4 R/B now!
10-day predictions


NORAD ID: 37228
Int'l Code: 2010-062G
Perigee: 616.2 km
Apogee: 635.8 km
Inclination: 72.0 °
Period: 97.1 minutes
Semi major axis: 6996 km
RCS: Unknown
Launch date: November 20, 2010
Source: United States (US)
Launch site: Kodiak Island, Alaska (KODAK)

Note: This is a ROCKET BODY
Your satellite tracking list
LANDSAT 5
Track 1 satellite(s)




NASA's NSSDC Master Catalog

Two Line Element Set (TLE):
1 37228U 10062G   25178.90305518 0.00000600  00000-0  73028-4 0    08
2 37228  71.9702 218.7222 0013950  61.8099 298.1900 14.83322840    09
Source of the keplerian elements: McCants